This is the latest recevied weather packets stored in our database for station/object K3JSE-4. If no packets are shown the sender has not sent any weather packets the latest 10 day(s).
| Time | Temp. | Humidity | Pressure | Rain* | Wind** | Luminosity | Snow |
|---|---|---|---|---|---|---|---|
| 1777671643 | 16.67° C | 42% | 1011.9 hPa | 0 mm | - | - | - |
| 1777671343 | 16.67° C | 42% | 1011.7 hPa | 0 mm | - | - | - |
| 1777671043 | 16.67° C | 42% | 1011.7 hPa | 0 mm | - | - | - |
| 1777670743 | 17.22° C | 41% | 1011.7 hPa | 0 mm | - | - | - |
| 1777670443 | 16.67° C | 44% | 1011.7 hPa | 0 mm | - | - | - |
| 1777670143 | 17.22° C | 43% | 1011.7 hPa | 0 mm | - | - | - |
| 1777669843 | 17.22° C | 42% | 1011.8 hPa | 0 mm | - | - | - |
| 1777669543 | 17.22° C | 42% | 1011.8 hPa | 0 mm | - | - | - |
| 1777669243 | 17.22° C | 41% | 1011.8 hPa | 0 mm | - | - | - |
| 1777668943 | 17.22° C | 42% | 1011.7 hPa | 0 mm | - | - | - |
| 1777668644 | 17.22° C | 41% | 1011.8 hPa | 0 mm | - | - | - |
| 1777668344 | 17.22° C | 42% | 1011.9 hPa | 0 mm | - | - | - |
| 1777668044 | 17.22° C | 40% | 1011.8 hPa | 0 mm | - | - | - |
| 1777667744 | 17.78° C | 41% | 1011.8 hPa | 0 mm | - | - | - |
| 1777667444 | 17.22° C | 42% | 1011.7 hPa | 0 mm | - | - | - |
| 1777667144 | 16.67° C | 43% | 1011.8 hPa | 0 mm | - | - | - |
| 1777666844 | 16.67° C | 41% | 1011.9 hPa | 0 mm | - | - | - |
| 1777666544 | 17.78° C | 37% | 1011.8 hPa | 0 mm | - | - | - |
| 1777666244 | 17.78° C | 40% | 1011.9 hPa | 0 mm | - | - | - |
| 1777665944 | 17.22° C | 40% | 1012 hPa | 0 mm | - | - | - |
| 1777665644 | 17.22° C | 38% | 1012.1 hPa | 0 mm | - | - | - |
| 1777665344 | 17.78° C | 40% | 1012.1 hPa | 0 mm | - | - | - |
| 1777665044 | 17.78° C | 42% | 1012.1 hPa | 0 mm | - | - | - |
| 1777664744 | 17.78° C | 40% | 1012.3 hPa | 0 mm | - | - | - |
| 1777664444 | 17.22° C | 39% | 1012.3 hPa | 0 mm | - | - | - |
* Rain latest hour (hover to see other rain measurements)
** Current wind speed in m/s (hover to see current wind gust speed)